Time,TemperatureF,DewpointF,PressureIn,WindDirection,WindDirectionDegrees,WindSpeedMPH,WindSpeedGustMPH,Humidity,HourlyPrecipIn,Conditions,Clouds,dailyrainin,SoftwareType,DateUTC
2013-05-03 00:00:00,60.1,39.2,30.07,ESE,112,9.2,9.2,46,0.00,CLR,,0.00,WeatherDisplay:10.37,2013-05-03 04:00:00,
2013-05-03 00:01:00,59.9,39.1,30.07,SE,135,5.8,5.8,46,0.00,CLR,,0.00,WeatherDisplay:10.37,2013-05-03 04:01:00,
2013-05-03 00:02:00,59.9,39.1,30.07,ESE,112,5.8,5.8,46,0.00,CLR,,0.00,WeatherDisplay:10.37,2013-05-03 04:02:00,
2013-05-03 00:03:00,59.9,39.1,30.07,ESE,112,8.1,8.1,46,0.00,CLR,,0.00,WeatherDisplay:10.37,2013-05-03 04:03:00,
2013-05-03 00:08:00,59.5,39.2,30.07,East,90,8.1,8.1,47,0.00,CLR,,0.00,WeatherDisplay:10.37,2013-05-03 04:08:00,
2013-05-03 00:13:00,59.4,39.7,30.08,SE,135,6.9,6.9,48,0.00,CLR,,0.00,WeatherDisplay:10.37,2013-05-03 04:13:00,
2013-05-03 00:18:00,59.4,39.7,30.08,ESE,112,5.8,5.8,48,0.00,CLR,,0.00,WeatherDisplay:10.37,2013-05-03 04:18:00,
2013-05-03 00:23:00,59.2,39.5,30.08,SE,135,5.8,5.8,48,0.00,CLR,,0.00,WeatherDisplay:10.37,2013-05-03 04:23:00,
2013-05-03 00:28:00,59.0,39.9,30.08,South,180,5.8,5.8,49,0.00,CLR,,0.00,WeatherDisplay:10.37,2013-05-03 04:28:00,
2013-05-03 00:33:00,58.8,39.7,30.08,ESE,112,6.9,6.9,49,0.00,CLR,,0.00,WeatherDisplay:10.37,2013-05-03 04:33:00,
2013-05-03 00:38:00,58.8,39.7,30.07,SSE,158,6.3,6.3,49,0.00,CLR,,0.00,WeatherDisplay:10.37,2013-05-03 04:38:00,
2013-05-03 00:43:00,58.6,39.5,30.07,South,180,5.8,5.8,49,0.00,CLR,,0.00,WeatherDisplay:10.37,2013-05-03 04:43:00,
2013-05-03 00:48:00,58.6,39.5,30.07,SE,135,5.8,5.8,49,0.00,CLR,,0.00,WeatherDisplay:10.37,2013-05-03 04:48:00,
2013-05-03 00:53:00,58.5,39.4,30.07,SE,135,6.9,6.9,49,0.00,CLR,,0.00,WeatherDisplay:10.37,2013-05-03 04:53:00,
2013-05-03 00:58:00,58.3,39.7,30.07,ESE,112,8.1,8.1,50,0.00,CLR,,0.00,WeatherDisplay:10.37,2013-05-03 04:58:00,
2013-05-03 01:03:00,58.3,39.7,30.07,ESE,112,6.8,6.8,50,0.00,CLR,,0.00,WeatherDisplay:10.37,2013-05-03 05:03:00,
2013-05-03 01:08:00,58.3,39.7,30.07,SE,135,9.2,9.2,50,0.00,CLR,,0.00,WeatherDisplay:10.37,2013-05-03 05:08:00,
2013-05-03 01:13:00,58.3,39.7,30.07,SE,135,6.9,7.4,50,0.00,CLR,,0.00,WeatherDisplay:10.37,2013-05-03 05:13:00,
2013-05-03 01:18:00,58.1,39.5,30.07,South,180,8.1,8.1,50,0.00,CLR,,0.00,WeatherDisplay:10.37,2013-05-03 05:18:00,
2013-05-03 01:23:00,58.1,39.5,30.07,SE,135,6.9,6.9,50,0.00,CLR,,0.00,WeatherDisplay:10.37,2013-05-03 05:23:00,
2013-05-03 01:28:00,57.9,39.4,30.06,South,180,8.1,8.1,50,0.00,CLR,,0.00,WeatherDisplay:10.37,2013-05-03 05:28:00,
2013-05-03 01:33:00,57.9,39.4,30.06,South,180,5.8,5.8,50,0.00,CLR,,0.00,WeatherDisplay:10.37,2013-05-03 05:33:00,
2013-05-03 01:38:00,57.6,39.1,30.06,ESE,112,5.8,5.8,50,0.00,CLR,,0.00,WeatherDisplay:10.37,2013-05-03 05:38:00,
2013-05-03 01:43:00,57.6,39.1,30.06,ESE,112,5.8,5.8,50,0.00,CLR,,0.00,WeatherDisplay:10.37,2013-05-03 05:43:00,
2013-05-03 01:48:00,57.6,39.1,30.06,East,90,4.6,4.6,50,0.00,CLR,,0.00,WeatherDisplay:10.37,2013-05-03 05:48:00,
2013-05-03 01:53:00,57.2,38.7,30.06,East,90,4.6,4.6,50,0.00,CLR,,0.00,WeatherDisplay:10.37,2013-05-03 05:53:00,
2013-05-03 01:58:00,56.8,38.9,30.06,ESE,112,4.2,4.2,51,0.00,CLR,,0.00,WeatherDisplay:10.37,2013-05-03 05:58:00,
2013-05-03 02:03:00,56.7,38.8,30.06,ESE,112,4.6,4.6,51,0.00,CLR,,0.00,WeatherDisplay:10.37,2013-05-03 06:03:00,
2013-05-03 02:08:00,56.7,38.8,30.06,ESE,112,4.6,4.6,51,0.00,CLR,,0.00,WeatherDisplay:10.37,2013-05-03 06:08:00,
2013-05-03 02:13:00,56.5,38.6,30.06,SE,135,4.7,4.7,51,0.00,CLR,,0.00,WeatherDisplay:10.37,2013-05-03 06:13:00,
2013-05-03 02:18:00,56.5,38.6,30.06,SE,135,3.5,3.5,51,0.00,CLR,,0.00,WeatherDisplay:10.37,2013-05-03 06:18:00,
2013-05-03 02:23:00,56.3,38.4,30.06,ESE,112,3.7,3.7,51,0.00,CLR,,0.00,WeatherDisplay:10.37,2013-05-03 06:23:00,
2013-05-03 02:28:00,56.1,38.2,30.06,SE,135,3.5,3.5,51,0.00,CLR,,0.00,WeatherDisplay:10.37,2013-05-03 06:28:00,
2013-05-03 02:33:00,55.6,38.2,30.06,SE,135,3.5,3.5,52,0.00,CLR,,0.00,WeatherDisplay:10.37,2013-05-03 06:33:00,
2013-05-03 02:39:00,55.4,38.1,30.06,SE,135,2.7,2.7,52,0.00,CLR,,0.00,WeatherDisplay:10.37,2013-05-03 06:39:00,
2013-05-03 02:44:00,55.0,38.2,30.06,ESE,112,2.3,2.5,53,0.00,CLR,,0.00,WeatherDisplay:10.37,2013-05-03 06:44:00,
2013-05-03 02:49:00,54.7,38.4,30.06,South,180,0.0,0.0,54,0.00,CLR,,0.00,WeatherDisplay:10.37,2013-05-03 06:49:00,
2013-05-03 02:54:00,54.1,38.3,30.06,SSW,202,0.0,0.0,55,0.00,CLR,,0.00,WeatherDisplay:10.37,2013-05-03 06:54:00,
2013-05-03 02:59:00,54.1,38.3,30.06,ESE,112,2.3,2.3,55,0.00,CLR,,0.00,WeatherDisplay:10.37,2013-05-03 06:59:00,
2013-05-03 03:04:00,54.5,38.2,30.06,ESE,112,2.7,2.7,54,0.00,CLR,,0.00,WeatherDisplay:10.37,2013-05-03 07:04:00,
2013-05-03 03:09:00,54.5,38.2,30.06,ESE,112,2.7,2.7,54,0.00,CLR,,0.00,WeatherDisplay:10.37,2013-05-03 07:09:00,
2013-05-03 03:14:00,54.5,38.2,30.06,ESE,112,2.3,2.3,54,0.00,CLR,,0.00,WeatherDisplay:10.37,2013-05-03 07:14:00,
2013-05-03 03:19:00,54.3,38.0,30.06,ESE,112,3.5,3.5,54,0.00,CLR,,0.00,WeatherDisplay:10.37,2013-05-03 07:19:00,
2013-05-03 03:24:00,54.3,38.0,30.06,ESE,112,3.5,3.5,54,0.00,CLR,,0.00,WeatherDisplay:10.37,2013-05-03 07:24:00,
2013-05-03 03:29:00,53.6,37.3,30.06,ESE,112,3.5,3.5,54,0.00,CLR,,0.00,WeatherDisplay:10.37,2013-05-03 07:29:00,
2013-05-03 03:34:00,53.4,37.6,30.06,ESE,112,3.5,3.5,55,0.00,CLR,,0.00,WeatherDisplay:10.37,2013-05-03 07:34:00,
2013-05-03 03:39:00,53.4,37.6,30.07,ESE,112,4.6,4.6,55,0.00,CLR,,0.00,WeatherDisplay:10.37,2013-05-03 07:39:00,
2013-05-03 03:44:00,53.4,37.6,30.07,ESE,112,4.6,4.6,55,0.00,CLR,,0.00,WeatherDisplay:10.37,2013-05-03 07:44:00,
2013-05-03 03:49:00,52.9,37.6,30.07,SE,135,2.3,2.5,56,0.00,CLR,,0.00,WeatherDisplay:10.37,2013-05-03 07:49:00,
2013-05-03 03:54:00,52.7,37.4,30.06,ESE,112,2.7,2.7,56,0.00,CLR,,0.00,WeatherDisplay:10.37,2013-05-03 07:54:00,
2013-05-03 03:59:00,52.7,37.4,30.06,ESE,112,3.5,3.5,56,0.00,CLR,,0.00,WeatherDisplay:10.37,2013-05-03 07:59:00,
2013-05-03 04:04:00,52.3,37.5,30.06,ESE,112,3.5,3.5,57,0.00,CLR,,0.00,WeatherDisplay:10.37,2013-05-03 08:04:00,
2013-05-03 04:09:00,52.0,37.7,30.06,ESE,112,2.3,2.4,58,0.00,CLR,,0.00,WeatherDisplay:10.37,2013-05-03 08:09:00,
2013-05-03 04:14:00,51.6,37.3,30.06,ESE,112,0.0,0.0,58,0.00,CLR,,0.00,WeatherDisplay:10.37,2013-05-03 08:14:00,
2013-05-03 04:19:00,51.6,37.3,30.06,ESE,112,2.3,2.3,58,0.00,CLR,,0.00,WeatherDisplay:10.37,2013-05-03 08:19:00,
2013-05-03 04:24:00,51.4,37.1,30.06,ESE,112,2.3,2.3,58,0.00,CLR,,0.00,WeatherDisplay:10.37,2013-05-03 08:24:00,
2013-05-03 04:29:00,51.4,37.1,30.06,ESE,112,2.3,2.3,58,0.00,CLR,,0.00,WeatherDisplay:10.37,2013-05-03 08:29:00,
2013-05-03 04:34:00,51.4,37.1,30.06,ESE,112,2.2,2.2,58,0.00,CLR,,0.00,WeatherDisplay:10.37,2013-05-03 08:34:00,
2013-05-03 04:39:00,51.8,37.0,30.06,ESE,112,2.3,2.4,57,0.00,CLR,,0.00,WeatherDisplay:10.37,2013-05-03 08:39:00,
2013-05-03 04:44:00,52.0,37.2,30.06,East,90,3.5,3.5,57,0.00,CLR,,0.00,WeatherDisplay:10.37,2013-05-03 08:44:00,
2013-05-03 04:49:00,52.5,37.2,30.06,ENE,68,3.5,3.5,56,0.00,CLR,,0.00,WeatherDisplay:10.37,2013-05-03 08:49:00,
2013-05-03 04:54:00,52.5,37.2,30.06,ESE,112,3.7,3.7,56,0.00,CLR,,0.00,WeatherDisplay:10.37,2013-05-03 08:54:00,
2013-05-03 04:59:00,51.8,37.0,30.06,ESE,112,3.7,3.7,57,0.00,CLR,,0.00,WeatherDisplay:10.37,2013-05-03 08:59:00,
2013-05-03 05:04:00,51.6,37.3,30.06,ESE,112,3.5,3.6,58,0.00,CLR,,0.00,WeatherDisplay:10.37,2013-05-03 09:04:00,
2013-05-03 05:09:00,51.6,37.3,30.06,East,90,4.6,4.6,58,0.00,CLR,,0.00,WeatherDisplay:10.37,2013-05-03 09:09:00,
2013-05-03 05:14:00,51.6,37.3,30.06,SSE,158,4.6,4.6,58,0.00,CLR,,0.00,WeatherDisplay:10.37,2013-05-03 09:14:00,
2013-05-03 05:19:00,51.6,37.3,30.06,ENE,68,4.6,4.6,58,0.00,CLR,,0.00,WeatherDisplay:10.37,2013-05-03 09:19:00,
2013-05-03 05:24:00,51.6,36.9,30.06,ESE,112,5.8,5.8,57,0.00,CLR,,0.00,WeatherDisplay:10.37,2013-05-03 09:24:00,
2013-05-03 05:29:00,51.3,36.6,30.07,ESE,112,4.7,4.7,57,0.00,CLR,,0.00,WeatherDisplay:10.37,2013-05-03 09:29:00,
2013-05-03 05:34:00,51.3,36.6,30.07,ESE,112,4.7,4.7,57,0.00,CLR,,0.00,WeatherDisplay:10.37,2013-05-03 09:34:00,
2013-05-03 05:39:00,51.1,36.4,30.07,ESE,112,5.3,5.3,57,0.00,CLR,,0.00,WeatherDisplay:10.37,2013-05-03 09:39:00,
2013-05-03 05:44:00,51.1,36.8,30.07,ESE,112,5.8,5.8,58,0.00,CLR,,0.00,WeatherDisplay:10.37,2013-05-03 09:44:00,
2013-05-03 05:49:00,50.9,36.6,30.07,ESE,112,3.7,3.7,58,0.00,CLR,,0.00,WeatherDisplay:10.37,2013-05-03 09:49:00,
2013-05-03 05:54:00,50.7,36.5,30.07,ESE,112,3.5,3.5,58,0.00,CLR,,0.00,WeatherDisplay:10.37,2013-05-03 09:54:00,
2013-05-03 05:59:00,51.1,35.9,30.07,ESE,112,3.5,3.5,56,0.00,CLR,,0.00,WeatherDisplay:10.37,2013-05-03 09:59:00,
2013-05-03 06:04:00,51.4,35.3,30.07,ESE,112,3.5,3.5,54,0.00,CLR,,0.00,WeatherDisplay:10.37,2013-05-03 10:04:00,
2013-05-03 06:09:00,51.4,35.3,30.07,ESE,112,4.6,4.6,54,0.00,CLR,,0.00,WeatherDisplay:10.37,2013-05-03 10:09:00,
2013-05-03 06:14:00,51.3,35.2,30.07,ESE,112,4.6,4.6,54,0.00,CLR,,0.00,WeatherDisplay:10.37,2013-05-03 10:14:00,
2013-05-03 06:19:00,50.7,35.1,30.07,ESE,112,2.7,2.7,55,0.00,CLR,,0.00,WeatherDisplay:10.37,2013-05-03 10:19:00,
2013-05-03 06:24:00,50.9,35.3,30.07,ESE,112,3.5,3.5,55,0.00,CLR,,0.00,WeatherDisplay:10.37,2013-05-03 10:24:00,
2013-05-03 06:29:00,51.1,35.5,30.08,ESE,112,4.6,4.6,55,0.00,CLR,,0.00,WeatherDisplay:10.37,2013-05-03 10:29:00,
2013-05-03 06:34:00,51.6,35.5,30.08,ESE,112,4.2,4.2,54,0.00,CLR,,0.00,WeatherDisplay:10.37,2013-05-03 10:34:00,
2013-05-03 06:39:00,51.6,35.5,30.08,ESE,112,3.7,3.7,54,0.00,CLR,,0.00,WeatherDisplay:10.37,2013-05-03 10:39:00,
2013-05-03 06:44:00,51.6,35.5,30.08,SE,135,4.6,4.6,54,0.00,CLR,,0.00,WeatherDisplay:10.37,2013-05-03 10:44:00,
2013-05-03 06:49:00,51.8,35.2,30.08,ESE,112,3.5,3.5,53,0.00,CLR,,0.00,WeatherDisplay:10.37,2013-05-03 10:49:00,
2013-05-03 06:54:00,52.0,35.4,30.08,ESE,112,3.5,3.5,53,0.00,CLR,,0.00,WeatherDisplay:10.37,2013-05-03 10:54:00,
2013-05-03 06:59:00,52.2,35.1,30.08,ESE,112,3.7,3.7,52,0.00,CLR,,0.00,WeatherDisplay:10.37,2013-05-03 10:59:00,
2013-05-03 07:04:00,51.8,35.2,30.09,ESE,112,5.8,5.8,53,0.00,CLR,,0.00,WeatherDisplay:10.37,2013-05-03 11:04:00,
2013-05-03 07:09:00,51.6,35.9,30.09,East,90,6.3,6.3,55,0.00,CLR,,0.00,WeatherDisplay:10.37,2013-05-03 11:09:00,
2013-05-03 07:14:00,51.6,35.9,30.09,ENE,68,4.7,4.7,55,0.00,CLR,,0.00,WeatherDisplay:10.37,2013-05-03 11:14:00,
2013-05-03 07:19:00,51.6,35.9,30.09,ESE,112,6.3,6.3,55,0.00,CLR,,0.00,WeatherDisplay:10.37,2013-05-03 11:19:00,
2013-05-03 07:24:00,52.0,35.9,30.09,ESE,112,5.8,5.8,54,0.00,CLR,,0.00,WeatherDisplay:10.37,2013-05-03 11:24:00,
2013-05-03 07:29:00,52.2,36.0,30.09,ESE,112,5.8,5.8,54,0.00,CLR,,0.00,WeatherDisplay:10.37,2013-05-03 11:29:00,
2013-05-03 07:34:00,52.2,36.0,30.09,ESE,112,6.9,6.9,54,0.00,CLR,,0.00,WeatherDisplay:10.37,2013-05-03 11:34:00,
2013-05-03 07:39:00,52.3,36.6,30.09,ESE,112,5.8,5.8,55,0.00,CLR,,0.00,WeatherDisplay:10.37,2013-05-03 11:39:00,
2013-05-03 07:44:00,53.1,36.4,30.09,ESE,112,5.8,5.8,53,0.00,CLR,,0.00,WeatherDisplay:10.37,2013-05-03 11:44:00,
2013-05-03 07:49:00,53.6,36.4,30.09,ESE,112,5.8,5.8,52,0.00,CLR,,0.00,WeatherDisplay:10.37,2013-05-03 11:49:00,
2013-05-03 07:54:00,54.7,36.4,30.09,ESE,112,5.8,5.8,50,0.00,CLR,,0.00,WeatherDisplay:10.37,2013-05-03 11:54:00,
2013-05-03 07:59:00,55.2,36.9,30.09,ESE,112,8.1,8.1,50,0.00,CLR,,0.00,WeatherDisplay:10.37,2013-05-03 11:59:00,
2013-05-03 08:04:00,55.6,37.7,30.09,NE,45,5.8,5.8,51,0.00,CLR,,0.00,WeatherDisplay:10.37,2013-05-03 12:04:00,
2013-05-03 08:09:00,56.8,37.8,30.09,ESE,112,5.8,5.8,49,0.00,CLR,,0.00,WeatherDisplay:10.37,2013-05-03 12:09:00,
2013-05-03 08:14:00,57.4,37.9,30.10,ESE,112,8.1,8.1,48,0.00,CLR,,0.00,WeatherDisplay:10.37,2013-05-03 12:14:00,
2013-05-03 08:19:00,57.7,38.1,30.10,ESE,112,8.1,8.1,48,0.00,CLR,,0.00,WeatherDisplay:10.37,2013-05-03 12:19:00,
2013-05-03 08:24:00,58.8,38.6,30.10,SSE,158,6.9,6.9,47,0.00,CLR,,0.00,WeatherDisplay:10.37,2013-05-03 12:24:00,
2013-05-03 08:29:00,59.2,39.0,30.09,ESE,112,5.8,5.8,47,0.00,CLR,,0.00,WeatherDisplay:10.37,2013-05-03 12:29:00,
2013-05-03 08:34:00,59.5,39.2,30.09,SSE,158,6.9,6.9,47,0.00,CLR,,0.00,WeatherDisplay:10.37,2013-05-03 12:34:00,
2013-05-03 08:39:00,60.8,39.9,30.09,ESE,112,6.9,6.9,46,0.00,CLR,,0.00,WeatherDisplay:10.37,2013-05-03 12:39:00,
2013-05-03 08:44:00,60.4,39.5,30.09,ESE,112,8.1,8.1,46,0.00,CLR,,0.00,WeatherDisplay:10.37,2013-05-03 12:44:00,
2013-05-03 08:49:00,60.6,39.1,30.09,ESE,112,9.9,9.9,45,0.00,CLR,,0.00,WeatherDisplay:10.37,2013-05-03 12:49:00,
2013-05-03 08:54:00,61.0,40.1,30.09,South,180,8.1,8.1,46,0.00,CLR,,0.00,WeatherDisplay:10.37,2013-05-03 12:54:00,
2013-05-03 08:59:00,60.6,39.7,30.09,SSE,158,9.2,9.2,46,0.00,CLR,,0.00,WeatherDisplay:10.37,2013-05-03 12:59:00,
2013-05-03 09:04:00,61.3,39.8,30.09,East,90,8.1,8.1,45,0.00,CLR,,0.00,WeatherDisplay:10.37,2013-05-03 13:04:00,
2013-05-03 09:09:00,62.2,40.0,30.09,SE,135,10.4,10.4,44,0.00,CLR,,0.00,WeatherDisplay:10.37,2013-05-03 13:09:00,
2013-05-03 09:14:00,63.9,41.0,30.09,East,90,6.9,6.9,43,0.00,CLR,,0.00,WeatherDisplay:10.37,2013-05-03 13:14:00,
2013-05-03 09:19:00,64.2,39.4,30.09,SE,135,10.4,10.4,40,0.00,CLR,,0.00,WeatherDisplay:10.37,2013-05-03 13:19:00,
2013-05-03 09:24:00,63.7,39.5,30.09,SSE,158,11.5,11.5,41,0.00,CLR,,0.00,WeatherDisplay:10.37,2013-05-03 13:24:00,
2013-05-03 09:29:00,63.9,39.7,30.09,SE,135,11.5,11.5,41,0.00,CLR,,0.00,WeatherDisplay:10.37,2013-05-03 13:29:00,
2013-05-03 09:34:00,64.0,39.2,30.09,SE,135,12.7,12.7,40,0.00,CLR,,0.00,WeatherDisplay:10.37,2013-05-03 13:34:00,
2013-05-03 09:39:00,64.4,39.5,30.09,ESE,112,9.2,9.2,40,0.00,CLR,,0.00,WeatherDisplay:10.37,2013-05-03 13:39:00,
2013-05-03 09:44:00,64.9,40.0,30.09,ESE,112,12.4,12.4,40,0.00,CLR,,0.00,WeatherDisplay:10.37,2013-05-03 13:44:00,
2013-05-03 09:49:00,65.7,40.7,30.09,SE,135,11.5,11.5,40,0.00,CLR,,0.00,WeatherDisplay:10.37,2013-05-03 13:49:00,
2013-05-03 09:54:00,65.7,40.1,30.09,ESE,112,8.1,8.1,39,0.00,CLR,,0.00,WeatherDisplay:10.37,2013-05-03 13:54:00,
2013-05-03 09:59:00,64.9,39.3,30.09,SE,135,12.4,12.4,39,0.00,CLR,,0.00,WeatherDisplay:10.37,2013-05-03 13:59:00,
2013-05-03 10:04:00,64.6,39.1,30.09,East,90,10.4,10.4,39,0.00,CLR,,0.00,WeatherDisplay:10.37,2013-05-03 14:04:00,
2013-05-03 10:09:00,65.3,40.3,30.09,South,180,10.4,10.4,40,0.00,CLR,,0.00,WeatherDisplay:10.37,2013-05-03 14:09:00,
2013-05-03 10:14:00,66.4,40.7,30.10,ESE,112,11.5,11.5,39,0.00,CLR,,0.00,WeatherDisplay:10.37,2013-05-03 14:14:00,
2013-05-03 10:19:00,66.4,40.0,30.10,ESE,112,11.5,11.5,38,0.00,CLR,,0.00,WeatherDisplay:10.37,2013-05-03 14:19:00,
2013-05-03 10:24:00,66.4,39.3,30.10,ESE,112,15.0,15.0,37,0.00,CLR,,0.00,WeatherDisplay:10.37,2013-05-03 14:24:00,
2013-05-03 10:29:00,66.4,39.3,30.09,SSE,158,9.2,9.2,37,0.00,CLR,,0.00,WeatherDisplay:10.37,2013-05-03 14:29:00,
2013-05-03 10:34:00,66.6,40.2,30.09,SE,135,10.4,10.4,38,0.00,CLR,,0.00,WeatherDisplay:10.37,2013-05-03 14:34:00,
2013-05-03 10:39:00,66.6,41.5,30.10,West,270,12.4,12.4,40,0.00,CLR,,0.00,WeatherDisplay:10.37,2013-05-03 14:39:00,
2013-05-03 10:44:00,65.5,38.5,30.10,SE,135,11.9,11.9,37,0.00,CLR,,0.00,WeatherDisplay:10.37,2013-05-03 14:44:00,
2013-05-03 10:49:00,66.4,39.3,30.09,South,180,9.2,9.2,37,0.00,CLR,,0.00,WeatherDisplay:10.37,2013-05-03 14:49:00,
2013-05-03 10:54:00,66.9,36.8,30.09,ESE,112,11.5,11.5,33,0.00,CLR,,0.00,WeatherDisplay:10.37,2013-05-03 14:54:00,
2013-05-03 10:59:00,66.7,35.1,30.09,SE,135,15.0,15.0,31,0.00,CLR,,0.00,WeatherDisplay:10.37,2013-05-03 14:59:00,
2013-05-03 11:04:00,67.3,34.8,30.09,SE,135,16.1,16.1,30,0.00,CLR,,0.00,WeatherDisplay:10.37,2013-05-03 15:04:00,
2013-05-03 11:09:00,67.5,35.0,30.09,SSE,158,14.0,14.0,30,0.00,CLR,,0.00,WeatherDisplay:10.37,2013-05-03 15:09:00,
2013-05-03 11:14:00,67.3,34.8,30.09,SSE,158,10.4,10.4,30,0.00,CLR,,0.00,WeatherDisplay:10.37,2013-05-03 15:14:00,
2013-05-03 11:19:00,67.8,33.5,30.09,SSE,158,15.0,15.0,28,0.00,CLR,,0.00,WeatherDisplay:10.37,2013-05-03 15:19:00,
2013-05-03 11:24:00,67.6,33.3,30.09,SE,135,13.8,13.8,28,0.00,CLR,,0.00,WeatherDisplay:10.37,2013-05-03 15:24:00,
2013-05-03 11:29:00,67.6,32.4,30.09,ESE,112,15.0,15.0,27,0.00,CLR,,0.00,WeatherDisplay:10.37,2013-05-03 15:29:00,
2013-05-03 11:34:00,68.9,33.5,30.09,ESE,112,11.5,11.5,27,0.00,CLR,,0.00,WeatherDisplay:10.37,2013-05-03 15:34:00,
2013-05-03 11:39:00,68.7,33.3,30.09,SE,135,16.1,16.1,27,0.00,CLR,,0.00,WeatherDisplay:10.37,2013-05-03 15:39:00,
2013-05-03 11:44:00,68.2,32.0,30.09,ESE,112,18.4,18.4,26,0.00,CLR,,0.00,WeatherDisplay:10.37,2013-05-03 15:44:00,
2013-05-03 11:49:00,68.2,32.0,30.09,SE,135,17.3,17.3,26,0.00,CLR,,0.00,WeatherDisplay:10.37,2013-05-03 15:49:00,
2013-05-03 11:54:00,68.9,32.6,30.09,ESE,112,12.4,12.4,26,0.00,CLR,,0.00,WeatherDisplay:10.37,2013-05-03 15:54:00,
2013-05-03 11:59:00,68.9,32.6,30.09,ESE,112,16.1,16.1,26,0.00,CLR,,0.00,WeatherDisplay:10.37,2013-05-03 15:59:00,
2013-05-03 12:04:00,68.9,33.5,30.08,SE,135,13.8,13.8,27,0.00,CLR,,0.00,WeatherDisplay:10.37,2013-05-03 16:04:00,
2013-05-03 12:09:00,69.1,34.6,30.08,West,270,13.8,13.8,28,0.00,CLR,,0.00,WeatherDisplay:10.37,2013-05-03 16:09:00,
2013-05-03 12:14:00,70.0,34.5,30.08,SSE,158,12.7,12.7,27,0.00,CLR,,0.00,WeatherDisplay:10.37,2013-05-03 16:14:00,
2013-05-03 12:19:00,70.3,35.6,30.08,SE,135,13.0,13.0,28,0.00,CLR,,0.00,WeatherDisplay:10.37,2013-05-03 16:19:00,
2013-05-03 12:24:00,69.1,34.6,30.08,ESE,112,17.1,17.1,28,0.00,CLR,,0.00,WeatherDisplay:10.37,2013-05-03 16:24:00,
2013-05-03 12:29:00,69.1,35.5,30.07,SE,135,15.0,15.0,29,0.00,CLR,,0.00,WeatherDisplay:10.37,2013-05-03 16:29:00,
2013-05-03 12:34:00,69.3,35.7,30.07,East,90,13.0,13.0,29,0.00,CLR,,0.00,WeatherDisplay:10.37,2013-05-03 16:34:00,
2013-05-03 12:39:00,70.2,37.3,30.07,ESE,112,12.7,12.7,30,0.00,CLR,,0.00,WeatherDisplay:10.37,2013-05-03 16:39:00,
2013-05-03 12:44:00,69.6,36.8,30.07,SSE,158,19.6,19.6,30,0.00,CLR,,0.00,WeatherDisplay:10.37,2013-05-03 16:44:00,
2013-05-03 12:49:00,70.7,37.7,30.07,SE,135,10.4,10.4,30,0.00,CLR,,0.00,WeatherDisplay:10.37,2013-05-03 16:49:00,
2013-05-03 12:54:00,70.9,37.9,30.07,ESE,112,12.7,12.7,30,0.00,CLR,,0.00,WeatherDisplay:10.37,2013-05-03 16:54:00,
2013-05-03 12:59:00,70.5,39.2,30.07,SSE,158,9.2,9.2,32,0.00,CLR,,0.00,WeatherDisplay:10.37,2013-05-03 16:59:00,
2013-05-03 13:04:00,72.0,39.7,30.06,East,90,10.4,10.4,31,0.00,CLR,,0.00,WeatherDisplay:10.37,2013-05-03 17:04:00,
2013-05-03 13:09:00,71.2,39.0,30.06,NE,45,6.9,6.9,31,0.00,CLR,,0.00,WeatherDisplay:10.37,2013-05-03 17:09:00,
2013-05-03 13:14:00,71.8,40.3,30.06,SE,135,8.1,8.1,32,0.00,CLR,,0.00,WeatherDisplay:10.37,2013-05-03 17:14:00,
2013-05-03 13:19:00,72.1,40.6,30.06,ESE,112,12.7,12.7,32,0.00,CLR,,0.00,WeatherDisplay:10.37,2013-05-03 17:19:00,
2013-05-03 13:24:00,71.2,39.8,30.06,SSE,158,13.8,13.8,32,0.00,CLR,,0.00,WeatherDisplay:10.37,2013-05-03 17:24:00,
2013-05-03 13:29:00,72.0,41.3,30.06,East,90,15.5,15.5,33,0.00,CLR,,0.00,WeatherDisplay:10.37,2013-05-03 17:29:00,
2013-05-03 13:34:00,71.6,41.7,30.06,SE,135,8.8,8.8,34,0.00,CLR,,0.00,WeatherDisplay:10.37,2013-05-03 17:34:00,
2013-05-03 13:39:00,71.8,41.9,30.05,ESE,112,12.7,12.7,34,0.00,CLR,,0.00,WeatherDisplay:10.37,2013-05-03 17:39:00,
2013-05-03 13:44:00,71.6,41.7,30.05,ESE,112,15.0,15.0,34,0.00,CLR,,0.00,WeatherDisplay:10.37,2013-05-03 17:44:00,
2013-05-03 13:49:00,72.5,41.7,30.05,SW,225,11.4,11.4,33,0.00,CLR,,0.00,WeatherDisplay:10.37,2013-05-03 17:49:00,
2013-05-03 13:54:00,71.1,41.3,30.05,ESE,112,11.5,11.5,34,0.00,CLR,,0.00,WeatherDisplay:10.37,2013-05-03 17:54:00,
2013-05-03 13:59:00,70.9,42.6,30.05,SSE,158,14.5,14.5,36,0.00,CLR,,0.00,WeatherDisplay:10.37,2013-05-03 17:59:00,
2013-05-03 14:04:00,72.3,43.1,30.05,SE,135,13.8,13.8,35,0.00,CLR,,0.00,WeatherDisplay:10.37,2013-05-03 18:04:00,
2013-05-03 14:09:00,72.1,42.9,30.05,ESE,112,16.1,16.1,35,0.00,CLR,,0.00,WeatherDisplay:10.37,2013-05-03 18:09:00,
2013-05-03 14:14:00,72.3,43.8,30.05,ESE,112,15.0,15.0,36,0.00,CLR,,0.00,WeatherDisplay:10.37,2013-05-03 18:14:00,
2013-05-03 14:19:00,72.5,44.7,30.05,South,180,12.7,12.7,37,0.00,CLR,,0.00,WeatherDisplay:10.37,2013-05-03 18:19:00,
2013-05-03 14:24:00,72.5,44.7,30.05,NNE,22,6.3,6.3,37,0.00,CLR,,0.00,WeatherDisplay:10.37,2013-05-03 18:24:00,
2013-05-03 14:29:00,72.9,45.1,30.04,ESE,112,14.0,14.0,37,0.00,CLR,,0.00,WeatherDisplay:10.37,2013-05-03 18:29:00,
2013-05-03 14:34:00,72.3,45.3,30.04,ESE,112,15.0,15.0,38,0.00,CLR,,0.00,WeatherDisplay:10.37,2013-05-03 18:34:00,
2013-05-03 14:39:00,72.5,44.7,30.04,ESE,112,11.9,11.9,37,0.00,CLR,,0.00,WeatherDisplay:10.37,2013-05-03 18:39:00,
2013-05-03 14:44:00,73.4,44.8,30.04,SE,135,13.8,13.8,36,0.00,CLR,,0.00,WeatherDisplay:10.37,2013-05-03 18:44:00,
2013-05-03 14:49:00,73.4,44.8,30.04,SE,135,9.4,9.4,36,0.00,CLR,,0.00,WeatherDisplay:10.37,2013-05-03 18:49:00,
2013-05-03 14:54:00,71.8,44.1,30.04,SSE,158,18.4,18.4,37,0.00,CLR,,0.00,WeatherDisplay:10.37,2013-05-03 18:54:00,
2013-05-03 14:59:00,72.7,44.9,30.04,SE,135,10.4,10.4,37,0.00,CLR,,0.00,WeatherDisplay:10.37,2013-05-03 18:59:00,
2013-05-03 15:04:00,72.1,45.1,30.04,ESE,112,11.5,11.5,38,0.00,CLR,,0.00,WeatherDisplay:10.37,2013-05-03 19:04:00,
2013-05-03 15:09:00,73.2,46.1,30.04,ESE,112,9.2,9.2,38,0.00,CLR,,0.00,WeatherDisplay:10.37,2013-05-03 19:09:00,
2013-05-03 15:14:00,74.1,46.2,30.03,WNW,292,11.5,11.5,37,0.00,CLR,,0.00,WeatherDisplay:10.37,2013-05-03 19:14:00,
2013-05-03 15:19:00,73.9,45.3,30.03,SW,225,12.7,12.7,36,0.00,CLR,,0.00,WeatherDisplay:10.37,2013-05-03 19:19:00,
2013-05-03 15:24:00,72.9,45.1,30.03,SE,135,16.1,16.1,37,0.00,CLR,,0.00,WeatherDisplay:10.37,2013-05-03 19:24:00,
2013-05-03 15:29:00,73.0,44.5,30.03,East,90,12.7,12.7,36,0.00,CLR,,0.00,WeatherDisplay:10.37,2013-05-03 19:29:00,
2013-05-03 15:34:00,73.0,45.2,30.03,SE,135,10.4,10.4,37,0.00,CLR,,0.00,WeatherDisplay:10.37,2013-05-03 19:34:00,
2013-05-03 15:39:00,73.0,45.2,30.03,SSE,158,10.4,10.4,37,0.00,CLR,,0.00,WeatherDisplay:10.37,2013-05-03 19:39:00,
2013-05-03 15:44:00,73.0,45.2,30.03,ESE,112,10.4,10.4,37,0.00,CLR,,0.00,WeatherDisplay:10.37,2013-05-03 19:44:00,
2013-05-03 15:49:00,72.0,43.6,30.02,South,180,16.1,16.8,36,0.00,CLR,,0.00,WeatherDisplay:10.37,2013-05-03 19:49:00,
2013-05-03 15:54:00,72.7,45.6,30.02,South,180,16.6,16.6,38,0.00,CLR,,0.00,WeatherDisplay:10.37,2013-05-03 19:54:00,
2013-05-03 15:59:00,72.1,44.4,30.02,SSE,158,13.8,13.8,37,0.00,CLR,,0.00,WeatherDisplay:10.37,2013-05-03 19:59:00,
2013-05-03 16:04:00,73.8,45.2,30.02,SSW,202,10.4,10.4,36,0.00,CLR,,0.00,WeatherDisplay:10.37,2013-05-03 20:04:00,
2013-05-03 16:09:00,73.9,46.0,30.02,ESE,112,6.9,6.9,37,0.00,CLR,,0.00,WeatherDisplay:10.37,2013-05-03 20:09:00,
2013-05-03 16:14:00,73.0,45.2,30.01,SE,135,11.9,11.9,37,0.00,CLR,,0.00,WeatherDisplay:10.37,2013-05-03 20:14:00,
2013-05-03 16:19:00,73.0,45.2,30.01,ESE,112,15.0,15.0,37,0.00,CLR,,0.00,WeatherDisplay:10.37,2013-05-03 20:19:00,
2013-05-03 16:24:00,72.9,45.1,30.02,SE,135,13.8,13.8,37,0.00,CLR,,0.00,WeatherDisplay:10.37,2013-05-03 20:24:00,
2013-05-03 16:29:00,73.0,45.2,30.02,ESE,112,11.5,11.5,37,0.00,CLR,,0.00,WeatherDisplay:10.37,2013-05-03 20:29:00,
2013-05-03 16:34:00,72.7,44.9,30.02,SSE,158,15.0,15.0,37,0.00,CLR,,0.00,WeatherDisplay:10.37,2013-05-03 20:34:00,
2013-05-03 16:39:00,71.4,44.5,30.01,SSE,158,16.1,16.2,38,0.00,CLR,,0.00,WeatherDisplay:10.37,2013-05-03 20:39:00,
2013-05-03 16:44:00,72.5,44.7,30.01,SE,135,10.9,10.9,37,0.00,CLR,,0.00,WeatherDisplay:10.37,2013-05-03 20:44:00,
2013-05-03 16:49:00,72.1,44.4,30.02,SSE,158,13.8,13.8,37,0.00,CLR,,0.00,WeatherDisplay:10.37,2013-05-03 20:49:00,
2013-05-03 16:54:00,72.7,44.9,30.02,SE,135,13.0,13.0,37,0.00,CLR,,0.00,WeatherDisplay:10.37,2013-05-03 20:54:00,
2013-05-03 16:59:00,72.1,44.4,30.02,ESE,112,13.8,13.8,37,0.00,CLR,,0.00,WeatherDisplay:10.37,2013-05-03 20:59:00,
2013-05-03 17:04:00,73.4,44.8,30.01,SE,135,9.4,9.4,36,0.00,CLR,,0.00,WeatherDisplay:10.37,2013-05-03 21:04:00,
2013-05-03 17:09:00,73.0,45.2,30.01,SE,135,9.2,9.2,37,0.00,CLR,,0.00,WeatherDisplay:10.37,2013-05-03 21:09:00,
2013-05-03 17:14:00,72.5,45.4,30.01,SE,135,13.0,13.2,38,0.00,CLR,,0.00,WeatherDisplay:10.37,2013-05-03 21:14:00,
2013-05-03 17:19:00,71.6,44.6,30.01,ESE,112,20.7,20.7,38,0.00,CLR,,0.00,WeatherDisplay:10.37,2013-05-03 21:19:00,
2013-05-03 17:24:00,71.4,43.8,30.01,ESE,112,12.7,12.7,37,0.00,CLR,,0.00,WeatherDisplay:10.37,2013-05-03 21:24:00,
2013-05-03 17:29:00,71.2,44.3,30.01,ESE,112,19.6,19.6,38,0.00,CLR,,0.00,WeatherDisplay:10.37,2013-05-03 21:29:00,
2013-05-03 17:34:00,71.8,44.8,30.01,SE,135,15.0,15.0,38,0.00,CLR,,0.00,WeatherDisplay:10.37,2013-05-03 21:34:00,
2013-05-03 17:39:00,71.8,44.1,30.01,SSE,158,16.1,16.1,37,0.00,CLR,,0.00,WeatherDisplay:10.37,2013-05-03 21:39:00,
2013-05-03 17:44:00,71.8,44.8,30.01,ESE,112,16.1,16.1,38,0.00,CLR,,0.00,WeatherDisplay:10.37,2013-05-03 21:44:00,
2013-05-03 17:49:00,72.1,44.4,30.01,SSE,158,13.8,13.8,37,0.00,CLR,,0.00,WeatherDisplay:10.37,2013-05-03 21:49:00,
2013-05-03 17:54:00,71.2,44.3,30.01,SE,135,13.8,13.8,38,0.00,CLR,,0.00,WeatherDisplay:10.37,2013-05-03 21:54:00,
2013-05-03 17:59:00,71.2,44.3,30.01,South,180,20.7,20.7,38,0.00,CLR,,0.00,WeatherDisplay:10.37,2013-05-03 21:59:00,
2013-05-03 18:04:00,71.4,44.5,30.01,ESE,112,11.4,11.4,38,0.00,CLR,,0.00,WeatherDisplay:10.37,2013-05-03 22:04:00,
2013-05-03 18:09:00,71.8,44.8,30.01,South,180,17.3,17.3,38,0.00,CLR,,0.00,WeatherDisplay:10.37,2013-05-03 22:09:00,
2013-05-03 18:14:00,70.9,44.0,30.01,SSW,202,16.1,16.1,38,0.00,CLR,,0.00,WeatherDisplay:10.37,2013-05-03 22:14:00,
2013-05-03 18:19:00,71.4,44.5,30.01,SSE,158,16.1,16.1,38,0.00,CLR,,0.00,WeatherDisplay:10.37,2013-05-03 22:19:00,
2013-05-03 18:24:00,71.6,44.6,30.01,SSW,202,10.9,10.9,38,0.00,CLR,,0.00,WeatherDisplay:10.37,2013-05-03 22:24:00,
2013-05-03 18:29:00,71.1,44.2,30.01,SSE,158,15.0,15.0,38,0.00,CLR,,0.00,WeatherDisplay:10.37,2013-05-03 22:29:00,
2013-05-03 18:34:00,70.7,45.2,30.01,SSW,202,12.7,12.7,40,0.00,CLR,,0.00,WeatherDisplay:10.37,2013-05-03 22:34:00,
2013-05-03 18:39:00,70.7,45.2,30.02,South,180,9.4,9.4,40,0.00,CLR,,0.00,WeatherDisplay:10.37,2013-05-03 22:39:00,
2013-05-03 18:44:00,70.5,45.0,30.02,ESE,112,10.4,10.4,40,0.00,CLR,,0.00,WeatherDisplay:10.37,2013-05-03 22:44:00,
2013-05-03 18:49:00,70.0,45.2,30.01,ESE,112,9.2,9.2,41,0.00,CLR,,0.00,WeatherDisplay:10.37,2013-05-03 22:49:00,
2013-05-03 18:54:00,69.8,45.0,30.01,East,90,10.4,10.4,41,0.00,CLR,,0.00,WeatherDisplay:10.37,2013-05-03 22:54:00,
2013-05-03 18:59:00,69.6,44.8,30.01,SSW,202,10.9,10.9,41,0.00,CLR,,0.00,WeatherDisplay:10.37,2013-05-03 22:59:00,
2013-05-03 19:04:00,70.2,45.4,30.01,SSE,158,11.4,11.4,41,0.00,CLR,,0.00,WeatherDisplay:10.37,2013-05-03 23:04:00,
2013-05-03 19:09:00,69.6,45.5,30.01,SSE,158,10.4,10.4,42,0.00,CLR,,0.00,WeatherDisplay:10.37,2013-05-03 23:09:00,
2013-05-03 19:14:00,69.1,45.7,30.02,ESE,112,8.1,8.1,43,0.00,CLR,,0.00,WeatherDisplay:10.37,2013-05-03 23:14:00,
2013-05-03 19:19:00,68.9,45.5,30.02,SE,135,11.5,11.5,43,0.00,CLR,,0.00,WeatherDisplay:10.37,2013-05-03 23:19:00,
2013-05-03 19:24:00,68.5,45.1,30.03,SE,135,10.4,10.4,43,0.00,CLR,,0.00,WeatherDisplay:10.37,2013-05-03 23:24:00,
2013-05-03 19:29:00,68.2,44.8,30.03,NE,45,10.4,10.4,43,0.00,CLR,,0.00,WeatherDisplay:10.37,2013-05-03 23:29:00,
2013-05-03 19:34:00,68.0,45.3,30.03,ESE,112,12.7,12.7,44,0.00,CLR,,0.00,WeatherDisplay:10.37,2013-05-03 23:34:00,
2013-05-03 19:39:00,67.5,45.4,30.03,SSE,158,10.4,10.4,45,0.00,CLR,,0.00,WeatherDisplay:10.37,2013-05-03 23:39:00,
2013-05-03 19:44:00,67.5,45.4,30.03,ESE,112,11.5,11.5,45,0.00,CLR,,0.00,WeatherDisplay:10.37,2013-05-03 23:44:00,
2013-05-03 19:49:00,66.9,44.9,30.03,ESE,112,8.1,8.1,45,0.00,CLR,,0.00,WeatherDisplay:10.37,2013-05-03 23:49:00,
2013-05-03 19:54:00,66.7,45.3,30.03,SE,135,6.8,6.8,46,0.00,CLR,,0.00,WeatherDisplay:10.37,2013-05-03 23:54:00,
2013-05-03 19:59:00,66.6,45.2,30.03,ESE,112,6.9,6.9,46,0.00,CLR,,0.00,WeatherDisplay:10.37,2013-05-03 23:59:00,
2013-05-03 20:04:00,66.2,45.4,30.03,ESE,112,11.5,11.5,47,0.00,CLR,,0.00,WeatherDisplay:10.37,2013-05-04 00:04:00,
2013-05-03 20:09:00,65.8,45.0,30.03,SSW,202,8.1,8.1,47,0.00,CLR,,0.00,WeatherDisplay:10.37,2013-05-04 00:09:00,
2013-05-03 20:14:00,65.3,45.1,30.03,ESE,112,5.8,5.8,48,0.00,CLR,,0.00,WeatherDisplay:10.37,2013-05-04 00:14:00,
2013-05-03 20:19:00,64.9,44.7,30.03,ESE,112,8.1,8.1,48,0.00,CLR,,0.00,WeatherDisplay:10.37,2013-05-04 00:19:00,
2013-05-03 20:24:00,64.8,45.2,30.03,SE,135,8.8,8.8,49,0.00,CLR,,0.00,WeatherDisplay:10.37,2013-05-04 00:24:00,
2013-05-03 20:29:00,64.4,44.8,30.03,South,180,8.1,8.1,49,0.00,CLR,,0.00,WeatherDisplay:10.37,2013-05-04 00:29:00,
2013-05-03 20:34:00,64.2,45.2,30.03,SSE,158,8.1,8.1,50,0.00,CLR,,0.00,WeatherDisplay:10.37,2013-05-04 00:34:00,
2013-05-03 20:39:00,64.0,45.0,30.03,SSE,158,6.8,6.8,50,0.00,CLR,,0.00,WeatherDisplay:10.37,2013-05-04 00:39:00,
2013-05-03 20:44:00,63.7,45.2,30.03,ESE,112,9.2,9.2,51,0.00,CLR,,0.00,WeatherDisplay:10.37,2013-05-04 00:44:00,
2013-05-03 20:49:00,63.5,45.0,30.04,SE,135,8.1,8.1,51,0.00,CLR,,0.00,WeatherDisplay:10.37,2013-05-04 00:49:00,
2013-05-03 20:54:00,63.3,44.9,30.04,SE,135,6.9,6.9,51,0.00,CLR,,0.00,WeatherDisplay:10.37,2013-05-04 00:54:00,
2013-05-03 20:59:00,63.1,44.7,30.04,SE,135,8.1,8.3,51,0.00,CLR,,0.00,WeatherDisplay:10.37,2013-05-04 00:59:00,
2013-05-03 21:04:00,63.0,44.6,30.05,ESE,112,6.9,6.9,51,0.00,CLR,,0.00,WeatherDisplay:10.37,2013-05-04 01:04:00,
2013-05-03 21:09:00,62.6,44.7,30.05,SE,135,6.3,6.3,52,0.00,CLR,,0.00,WeatherDisplay:10.37,2013-05-04 01:09:00,
2013-05-03 21:14:00,62.4,44.5,30.05,ESE,112,5.8,5.8,52,0.00,CLR,,0.00,WeatherDisplay:10.37,2013-05-04 01:14:00,
2013-05-03 21:19:00,62.2,44.9,30.05,ESE,112,6.3,6.3,53,0.00,CLR,,0.00,WeatherDisplay:10.37,2013-05-04 01:19:00,
2013-05-03 21:24:00,62.1,44.8,30.05,South,180,7.3,7.3,53,0.00,CLR,,0.00,WeatherDisplay:10.37,2013-05-04 01:24:00,
2013-05-03 21:29:00,62.1,44.8,30.05,SE,135,6.9,6.9,53,0.00,CLR,,0.00,WeatherDisplay:10.37,2013-05-04 01:29:00,
2013-05-03 21:34:00,62.1,44.3,30.05,SE,135,10.4,10.4,52,0.00,CLR,,0.00,WeatherDisplay:10.37,2013-05-04 01:34:00,
2013-05-03 21:39:00,61.9,44.1,30.05,ESE,112,8.1,8.1,52,0.00,CLR,,0.00,WeatherDisplay:10.37,2013-05-04 01:39:00,
2013-05-03 21:44:00,61.7,43.9,30.05,SW,225,9.2,9.2,52,0.00,CLR,,0.00,WeatherDisplay:10.37,2013-05-04 01:44:00,
2013-05-03 21:49:00,61.5,43.7,30.06,SSE,158,6.9,6.9,52,0.00,CLR,,0.00,WeatherDisplay:10.37,2013-05-04 01:49:00,
2013-05-03 21:54:00,61.3,43.5,30.06,ESE,112,6.3,6.3,52,0.00,CLR,,0.00,WeatherDisplay:10.37,2013-05-04 01:54:00,
2013-05-03 21:59:00,61.3,43.5,30.06,SE,135,10.4,10.4,52,0.00,CLR,,0.00,WeatherDisplay:10.37,2013-05-04 01:59:00,
2013-05-03 22:04:00,61.3,43.5,30.06,ESE,112,8.1,8.1,52,0.00,CLR,,0.00,WeatherDisplay:10.37,2013-05-04 02:04:00,
2013-05-03 22:09:00,61.2,43.4,30.06,SSE,158,10.4,10.4,52,0.00,CLR,,0.00,WeatherDisplay:10.37,2013-05-04 02:09:00,
2013-05-03 22:14:00,61.2,42.9,30.06,South,180,7.8,7.8,51,0.00,CLR,,0.00,WeatherDisplay:10.37,2013-05-04 02:14:00,
2013-05-03 22:19:00,61.0,42.7,30.06,ESE,112,10.4,10.4,51,0.00,CLR,,0.00,WeatherDisplay:10.37,2013-05-04 02:19:00,
2013-05-03 22:24:00,61.0,42.7,30.06,SE,135,10.4,10.4,51,0.00,CLR,,0.00,WeatherDisplay:10.37,2013-05-04 02:24:00,
2013-05-03 22:29:00,61.0,42.7,30.06,SE,135,10.4,10.4,51,0.00,CLR,,0.00,WeatherDisplay:10.37,2013-05-04 02:29:00,
2013-05-03 22:34:00,61.0,42.7,30.06,SE,135,16.1,16.1,51,0.00,CLR,,0.00,WeatherDisplay:10.37,2013-05-04 02:34:00,
2013-05-03 22:39:00,60.6,42.4,30.05,SE,135,10.4,10.4,51,0.00,CLR,,0.00,WeatherDisplay:10.37,2013-05-04 02:39:00,
2013-05-03 22:44:00,60.6,42.4,30.05,ESE,112,10.4,10.4,51,0.00,CLR,,0.00,WeatherDisplay:10.37,2013-05-04 02:44:00,
2013-05-03 22:49:00,60.3,42.6,30.05,SE,135,6.9,6.9,52,0.00,CLR,,0.00,WeatherDisplay:10.37,2013-05-04 02:49:00,
2013-05-03 22:54:00,60.1,42.4,30.05,ESE,112,8.1,8.1,52,0.00,CLR,,0.00,WeatherDisplay:10.37,2013-05-04 02:54:00,
2013-05-03 22:59:00,59.9,42.7,30.05,ESE,112,8.1,8.1,53,0.00,CLR,,0.00,WeatherDisplay:10.37,2013-05-04 02:59:00,
2013-05-03 23:04:00,59.5,42.3,30.05,ESE,112,6.9,6.9,53,0.00,CLR,,0.00,WeatherDisplay:10.37,2013-05-04 03:04:00,
2013-05-03 23:09:00,59.4,42.3,30.05,ESE,112,7.3,7.3,53,0.00,CLR,,0.00,WeatherDisplay:10.37,2013-05-04 03:09:00,
2013-05-03 23:14:00,59.2,42.6,30.05,ESE,112,8.8,8.8,54,0.00,CLR,,0.00,WeatherDisplay:10.37,2013-05-04 03:14:00,
2013-05-03 23:19:00,59.2,42.6,30.05,SE,135,8.1,8.1,54,0.00,CLR,,0.00,WeatherDisplay:10.37,2013-05-04 03:19:00,
2013-05-03 23:24:00,58.8,42.2,30.05,SE,135,5.8,5.8,54,0.00,CLR,,0.00,WeatherDisplay:10.37,2013-05-04 03:24:00,
2013-05-03 23:29:00,58.8,42.2,30.05,SE,135,5.8,5.8,54,0.00,CLR,,0.00,WeatherDisplay:10.37,2013-05-04 03:29:00,
2013-05-03 23:34:00,58.6,42.0,30.05,SW,225,10.4,10.4,54,0.00,CLR,,0.00,WeatherDisplay:10.37,2013-05-04 03:34:00,
2013-05-03 23:39:00,58.6,42.0,30.05,SE,135,10.4,10.4,54,0.00,CLR,,0.00,WeatherDisplay:10.37,2013-05-04 03:39:00,
2013-05-03 23:44:00,58.3,42.2,30.05,SSE,158,6.9,6.9,55,0.00,CLR,,0.00,WeatherDisplay:10.37,2013-05-04 03:44:00,
2013-05-03 23:49:00,57.9,41.8,30.05,SE,135,5.8,5.8,55,0.00,CLR,,0.00,WeatherDisplay:10.37,2013-05-04 03:49:00,
2013-05-03 23:54:00,57.6,42.0,30.05,SSE,158,6.9,6.9,56,0.00,CLR,,0.00,WeatherDisplay:10.37,2013-05-04 03:54:00,